Regional Weather Roundup
Issued by NWS State College, PA

Home | Current Version | Previous Version | Text Only | Print | Product List | Glossary Off
Versions: 1 2 3 4 5 6 7 8 9 10 11 12 13 14 15 16 17 18 19 20 21 22 23 24 25 26 27 28 29 30 31 32 33 34 35 36 37 38 39 40 41 42 43 44 45 46 47 48 49 50

137
ASUS41 KCTP 191010
RWRCTP
NATIONAL WEATHER SERVICE STATE COLLEGE PA
600 AM EDT TUE SEP 19 2017

Note: "fair" indicates few or no clouds below 12,000 feet with no
significant weather and/or obstructions to visibility.

* = STATION THAT DOES NOT REPORT PRECIPITATION /E.G. RAIN...SNOW...ETC/
    THUNDER OR FOG.

PAZ002>004-007>009-013>016-020>023-029>032-191100-
WESTERN PENNSYLVANIA

CITY           SKY/WX    TMP DP  RH WIND       PRES   REMARKS
ERIE           CLEAR     67  62  84 S8        30.01S
MEADVILLE      CLOUDY    64  63  96 VRB3      30.05R
FRANKLIN*      CLOUDY    61  61 100 E3        30.06S
NEW CASTLE     FAIR      61  61 100 CALM      30.03F FOG
BEAVER COUNTY  NOT AVBL
BUTLER*        PTCLDY    61  61 100 E3        30.05S FOG
PITTSBURGH INT MOCLDY    65  63  93 CALM      30.02F
PITTSBURGH     PTCLDY    64  60  87 E5        30.03R
INDIANA*       CLEAR     61  61 100 NE3       30.09S
LATROBE        PTCLDY    63  63 100 SE6       30.05S
WASHINGTON CO* CLOUDY    57  55  94 CALM      30.03S VSB 1/4
$$

PAZ004>006-010>012-017>019-024>028-033>037-041-042-045-046-049>053-191100-
CENTRAL PENNSYLVANIA

CITY           SKY/WX    TMP DP  RH WIND       PRES   REMARKS
BRADFORD       CLOUDY    61  61 100 SE9       30.10R
DUBOIS         PTCLDY    59  57  93 E6        30.08S FOG
CLEARFIELD     CLOUDY    61  61 100 N3        30.09S FOG
JOHNSTOWN      CLOUDY    61  59  93 CALM      30.09S
ALTOONA        CLOUDY    59  59 100 CALM      30.09R FOG
STATE COLLEGE  FOG       59  59 100 CALM      30.09R VSB 1
WILLIAMSPORT   CLOUDY    65  62  90 CALM      30.07R
SELINSGROVE    CLOUDY    61  61 100 CALM      30.08S FOG
FT INDIANTOWN  MOCLDY    65  65 100 N3        30.05S
CAPITAL CITY   MOCLDY    66  63  90 CALM      30.05S
HARRISBURG     MOCLDY    66  64  93 NW5       30.04S
YORK           CLOUDY    64  64 100 W3        30.04S FOG
$$

PAZ038>040-043-044-047-048-054-055-060>062-067>071-191100-
EASTERN PENNSYLVANIA

CITY           SKY/WX    TMP DP  RH WIND       PRES   REMARKS
SCRANTON       PTCLDY    62  61  96 CALM      30.09R
MOUNT POCONO   CLOUDY    61  61 100 NE9       30.10S FOG
ALLENTOWN      CLOUDY    69  64  84 N3        30.04S
QUAKERTOWN*    CLOUDY    66  66 100 NE6       30.04S
READING        CLOUDY    67  66  97 N3        30.03R
LANCASTER      CLOUDY    67  66  97 N12       30.03S
COATESVILLE    PTSUNNY   68  66  94 N6        30.03S
POTTSTOWN      CLOUDY    67  66  97 N7        30.03S
BLUE BELL      CLOUDY    66  66 100 NE3       30.02S
DOYLESTOWN     CLOUDY    68  67  96 N6        30.01F
WILLOW GROVE   NOT AVBL
NORTH PHILA    CLOUDY    72  67  84 NE10      30.00S
PHILADELPHIA   CLOUDY    71  67  87 NE14      29.99S
$$




USA.gov is the U.S. government's official web portal to all federal, state and local government web resources and services.